Flag for Czech Republic Weather past 2 weeks in Brno, Czech Republic

Now
52 °F

Overcast.


Feels Like: 50 °F
Forecast: 46 / 62 °F
Wind: 6 mph from Northeast

Location: Brno / Turany


UV Index: 0 (Low)

Visibility: 19 mi


Pressure: 29.83 "Hg

Humidity: 81%

Dew point: 47 °F

Location of BrnoLocation

Historic Weather in Brno

°F

Brno temperature yesterday

Maximum temperature yesterday: 68 °F (at 1:00 PM)
Minimum temperature yesterday: 44 °F (at 6:00 AM)
Average temperature yesterday: 55 °F

Past Weeks' High & Low Weather Summary

 TemperatureHumidityPressure
High69 °F (Apr 8, 2:00 PM)92% (Apr 7, 4:00 AM)30.35 "Hg (Apr 7, 4:00 AM)
Low33 °F (Apr 18, 6:00 AM)28% (Apr 18, 4:00 PM)29.75 "Hg (Apr 18, 4:00 PM)
Average49 °F64%30.02 "Hg
* Reported Apr 5 8:00 PM — Apr 20 8:00 PM, Brno, Weather by CustomWeather, © 2014

Note: Actual official high and low records may vary slightly from our data, if they occured in-between our weather recording intervals... More about our weather records

Advertising

Historic Weather Conditions — Data for Previous 24 hours

 ConditionsComfort  
Time TempWeatherWind HumidityBarometerVisibility
8:00 PM
Apr 20
53 °FSprinkles. Overcast.7 mph72%29.82 "Hg22 mi
7:00 PM53 °FThundershowers. Overcast.5 mph69%29.81 "Hg4 mi
6:00 PM62 °FOvercast.6 mph43%29.78 "Hg16 mi
5:00 PM62 °FThunderstorms. Overcast.3 mph50%29.78 "Hg16 mi
4:00 PM61 °FThundershowers. Overcast.6 mph52%29.79 "Hg16 mi
3:00 PM61 °FOvercast.9 mph53%29.80 "Hg16 mi
2:00 PM62 °FPartly sunny.7 mph48%29.81 "Hg16 mi
1:00 PM62 °FScattered clouds.7 mph50%29.82 "Hg16 mi
12:00 PM60 °FPartly sunny.5 mph52%29.85 "Hg16 mi
11:00 AM57 °FPartly sunny.8 mph63%29.86 "Hg12 mi
10:00 AM55 °FPartly sunny.8 mph71%29.86 "Hg12 mi
9:00 AM53 °FPartly sunny.6 mph73%29.86 "Hg12 mi
8:00 AM50 °FPartly sunny.2 mph78%29.85 "Hg12 mi
7:00 AM48 °FPassing clouds.5 mph78%29.85 "Hg12 mi
6:00 AM48 °FPassing clouds.6 mph77%29.83 "Hg7 mi
5:00 AM49 °FPassing clouds.6 mph76%29.83 "Hg9 mi
4:00 AM49 °FPassing clouds.7 mph80%29.83 "Hg9 mi
3:00 AM50 °FPassing clouds.7 mph80%29.83 "Hg9 mi
2:00 AM51 °FPassing clouds.6 mph81%29.83 "Hg9 mi
1:00 AM52 °FPassing clouds.7 mph77%29.83 "Hg9 mi
12:00 AM53 °FPassing clouds.8 mph75%29.83 "Hg12 mi
11:00 PM
Apr 19
54 °FPassing clouds.6 mph71%29.82 "Hg12 mi
10:00 PM56 °FOvercast.9 mph63%29.81 "Hg12 mi
Weather by CustomWeather, © 2014

See weather overview